Location: Bad Grund
(51.8110°N, 10.2372°E)
Time: 04:21:36
(UTC+00:00)

Daily predictions for brighter satellites

Satellite Brightness Start Highest point End
(mag) Time Altitude Azimuth Time Altitude Azimuth Time Altitude Azimuth
Cosmos 1515 Rocket 4.2 00:06:25 48° WNW 00:06:25 48° WNW 00:10:25 10° N
Thor Agena Rocket 4.1 00:02:01 10° N 00:06:53 46° WNW 00:07:30 44° W
EO 1 Del DPAF 4.2 00:03:32 10° N 00:06:17 43° NNW 00:06:17 43° NNW
USA 308 3.9 00:09:20 39° E 00:09:20 39° E 00:12:07 10° ENE
Cosmos 2074 Rocket 4.4 00:02:17 10° NNW 00:08:14 47° W 00:08:59 45° WSW
Cosmos 1354 Rocket 3.8 00:10:15 78° SSE 00:10:27 80° ESE 00:15:43 10° NNE
SJ 16-02 3.2 00:10:39 21° E 00:10:39 21° E 00:13:58 10° NE
CZ-4 R/B 4.1 00:05:44 10° NNE 00:10:44 60° ESE 00:10:58 59° ESE
Cosmos 1666 4.5 00:10:10 10° NNW 00:12:13 25° NW 00:12:13 25° NW
COSMOS 2406 3.5 00:11:52 10° NNW 00:17:33 63° NE 00:20:05 33° SE
ADEOS II 4.2 00:15:12 10° NE 00:18:34 17° E 00:20:56 13° ESE
Cosmos 962 Rocket 4.4 00:14:30 10° N 00:20:46 86° W 00:22:04 59° S
Meteor 1-27 Rocket 3.6 00:20:05 66° S 00:20:53 81° E 00:26:40 10° NNE
Meteor 1-11 Rocket 3.8 00:15:20 10° NNW 00:21:09 62° W 00:21:46 58° SW
ATLAS 5 CENTAUR R/B 2.4 00:16:48 10° NW 00:22:07 73° NE 00:28:28 10° SE
Cosmos 1777 Rocket 4.3 00:23:19 51° SE 00:23:43 52° ESE 00:28:47 10° NNE
Cosmos 1844 3.6 00:23:31 64° SW 00:24:27 82° WNW 00:30:13 10° NNE
Cosmos 968 Rocket 4.4 00:23:54 36° W 00:25:02 40° NW 00:30:01 10° NNE
Cosmos 1536 3.6 00:22:15 10° NNW 00:25:22 47° NW 00:25:22 47° NW
Cosmos 773 Rocket 4.0 00:21:27 10° NNW 00:26:35 61° WSW 00:26:35 61° WSW
Cosmos 1975 4.4 00:23:54 10° N 00:27:30 30° ENE 00:28:23 27° E
Cosmos 1707 Rocket 3.8 00:28:29 60° E 00:28:29 60° E 00:32:40 10° NNE
USA 281 3.7 00:29:00 40° WSW 00:29:24 41° WSW 00:35:35 10° NW
Cosmos 1812 4.4 00:30:57 25° NW 00:30:57 25° NW 00:33:39 10° N
Okean 1 4.4 00:31:32 37° E 00:31:32 37° E 00:35:17 10° NNE
CZ-4C R/B 3.2 00:30:13 10° NW 00:37:02 67° NE 00:45:07 10° ESE
Nadezhda 1 Rocket 4.3 00:35:58 46° WSW 00:37:29 57° WNW 00:43:48 10° N
Cosmos 2218 Rocket 4.0 00:31:52 10° N 00:38:03 78° ENE 00:40:15 43° SSE
MOZ.5/SAFIR/RUBIN 5/SL-8 3.6 00:41:07 73° WSW 00:41:07 73° WSW 00:45:47 10° NNW
Cosmos 2366 rocket 3.9 00:41:33 10° N 00:47:45 87° E 00:49:52 44° SSE
NOSS 3-4 (A) 4.4 00:41:48 10° NW 00:48:23 56° NE 00:55:47 10° ESE
NOSS 3-4 (C) 4.4 00:41:54 10° NW 00:48:29 56° NE 00:55:53 10° ESE
Cosmos 1340 Rocket 3.1 00:46:25 10° NNW 00:49:55 62° NW 00:49:55 62° NW
SL-16 R/B 2.5 00:48:09 39° SSE 00:50:44 89° ENE 00:57:03 10° NNW
Cosmos 1538 Rocket 4.0 00:47:15 10° NNW 00:52:37 67° WSW 00:53:18 60° SSW
Cosmos 1743 3.5 00:49:14 10° NNW 00:52:04 43° NW 00:52:04 43° NW
Cosmos 2263 Rocket 4.3 00:49:44 10° WNW 00:53:39 19° NNW 00:57:36 10° NNE
Meteor 1-29 4.3 00:55:10 10° NNE 00:58:00 31° E 00:58:00 31° E
NOSS 3-3 (A) 4.5 00:58:28 37° SSE 01:00:04 45° ESE 01:06:19 10° NE
NOSS 3-3 (C) 4.5 00:58:35 37° SSE 01:00:11 45° ESE 01:06:24 10° NE
USA 305 3.0 00:59:37 62° WNW 01:00:12 73° NNW 01:04:30 10° ENE
ATLAS 2AS CENTAUR R/B 3.8 00:55:17 10° NW 01:02:40 50° NNE 01:09:32 10° ESE
Cosmos 2228 Rocket 4.2 01:03:56 30° WNW 01:04:05 30° WNW 01:08:00 10° N
Cosmos 1238 Rocket 4.0 00:58:52 10° NNW 01:05:05 67° W 01:07:15 43° SSW
Cosmos 1515 3.6 01:05:46 79° N 01:05:46 79° N 01:09:22 10° N
Cosmos 1844 Rocket 3.6 01:04:03 29° W 01:06:06 40° NW 01:11:22 10° NNE
Cosmos 1908 Rocket 4.1 01:02:08 10° N 01:06:32 57° ENE 01:08:07 35° SE
Helios 1B rocket 2.3 01:05:48 10° NNE 01:09:57 83° ESE 01:10:19 73° S
SL-4 R/B 2.2 01:11:02 56° WSW 01:11:51 68° SSW 01:16:39 10° ESE
Cosmos 1733 Rocket 3.3 01:09:47 10° NNW 01:13:59 51° W 01:13:59 51° W
Cosmos 1271 Rocket 4.3 01:15:48 24° WNW 01:15:48 24° WNW 01:19:00 10° N
Meteor 1-18 Rocket 4.3 01:15:13 39° S 01:17:31 76° E 01:23:17 10° NNE
USA 306 3.1 01:16:44 42° WNW 01:18:04 69° N 01:22:23 10° ENE
Cosmos 2082 Rocket 2.1 01:13:26 10° NNW 01:19:07 88° ENE 01:23:49 15° SSE
Cosmos 1680 Rocket 3.6 01:14:07 10° NNW 01:19:27 78° ENE 01:23:26 18° SSE
Resurs 1-4 Rocket 2.0 01:18:56 10° NNE 01:24:14 80° WNW 01:25:56 44° SSW
UNK 3.9 01:24:38 50° WSW 01:25:07 53° W 01:29:41 10° NNW
Cosmos 1833 Rocket 2.9 01:21:48 10° NW 01:27:14 48° WSW 01:28:24 42° SW
ADEOS Rocket 3.6 01:25:22 10° SSE 01:31:48 69° ENE 01:39:01 10° NNW
BREEZE-M R/B 3.5 01:33:22 45° SW 01:34:44 69° SSE 01:42:50 10° E
Cosmos 1782 Rocket 4.0 01:30:44 10° N 01:35:12 62° ENE 01:38:06 21° SSE
USA 307 3.2 01:33:14 30° W 01:35:13 66° N 01:39:32 10° ENE
CZ-2D R/B 2.2 01:30:06 10° NNE 01:35:35 69° WNW 01:37:41 38° SW
Cosmos 1703 Rocket 3.9 01:34:02 34° SSE 01:35:42 58° E 01:39:59 10° NNE
ERBS 2.4 01:38:39 59° NW 01:38:56 63° NNW 01:42:14 10° ENE
Cosmos 1862 Rocket 3.8 01:38:24 45° WSW 01:39:14 52° WNW 01:43:33 10° N
Cosmos 2181 Rocket 4.4 01:38:47 33° SW 01:41:18 50° WNW 01:47:22 10° N
Meteor 1-28 Rocket 3.2 01:39:56 36° SSE 01:41:21 75° ENE 01:45:04 10° N
USA 234 3.7 01:36:48 10° ENE 01:43:07 48° SE 01:46:23 28° SSW
Cosmos 2278 Rocket 2.2 01:44:17 36° SW 01:46:45 81° WNW 01:52:28 10° NNE
Cosmos 923 Rocket 4.1 01:42:09 10° NNW 01:47:13 52° WSW 01:49:14 33° SSW
USA 308 3.2 01:45:25 24° W 01:47:56 64° N 01:52:14 10° E
SJ 16-02 1.7 01:47:37 40° WSW 01:48:51 54° WNW 01:53:13 10° NNE
Landsat 4 3.8 01:46:27 10° N 01:50:07 58° WNW 01:50:46 49° WSW
Cosmos 1943 Rocket 3.8 01:47:44 10° SSE 01:52:22 27° ESE 01:57:03 10° NE
BREEZE-M DEB (TANK) 4.4 01:47:29 10° WNW 01:52:42 29° WSW 01:52:42 29° WSW
Cosmos 990 Rocket 4.1 01:51:51 30° S 01:54:25 74° ESE 01:59:39 10° NNE
Okean 3 4.4 01:51:42 19° SSE 01:54:29 46° E 01:58:37 10° NNE
Cosmos 158 Rocket 4.5 01:50:13 10° NW 01:54:38 33° WSW 01:55:07 33° WSW
Gbstr 26 Del rocket 3.6 01:51:53 30° WSW 01:54:53 73° SSE 01:59:52 10° E
ADEOS II 2.0 01:53:40 10° NNE 01:58:58 86° WNW 02:01:52 28° SSW
Okean 1-7 2.9 01:57:13 35° SSW 01:59:00 88° WNW 02:03:17 10° N
COSMOS 2406 4.1 01:56:46 10° NW 02:01:27 27° WSW 02:02:05 27° WSW
Cosmos 489 Rocket 4.4 01:56:58 10° NNW 02:03:14 88° WSW 02:09:27 10° SSE
Cosmos 1975 3.8 02:00:24 10° NNW 02:03:56 29° W 02:04:06 29° W
ARIANE 5 R/B 3.6 02:00:59 10° NNE 02:05:57 42° E 02:10:53 10° SSE
Cosmos 1937 Rocket 3.9 02:03:07 21° S 02:06:26 58° ESE 02:11:29 10° NNE
ATLAS 5 CENTAUR R/B 3.0 02:01:41 10° WNW 02:06:37 32° WSW 02:09:45 21° SSW
Cosmos 1898 Rocket 3.5 02:08:04 25° SSW 02:11:11 82° ESE 02:16:30 10° NNE
Cosmos 2369 Rocket 4.2 02:09:22 10° SSE 02:13:34 22° ESE 02:17:47 10° NE
NPP 4.2 02:08:45 10° N 02:13:50 43° WNW 02:16:37 24° WSW
ARGOS Delta rocket 3.7 02:13:10 10° N 02:17:35 65° WNW 02:19:55 26° SSW
Cosmos 2297 4.2 02:15:39 16° S 02:20:05 56° ESE 02:25:40 10° NE
Sich 1 Rocket 3.6 02:17:03 10° N 02:21:40 90° ENE 02:26:15 10° S
CBERS-1 4.0 02:17:23 10° NNE 02:22:31 77° WNW 02:26:03 20° SSW
IDEFIX/ARIANE 42P 2.6 02:18:39 10° NNE 02:23:54 83° ESE 02:28:15 15° SSW
CZ-4C R/B 3.2 02:18:51 10° NW 02:25:39 45° WSW 02:33:26 10° S
Cosmos 2242 Rocket 4.0 02:23:59 26° SW 02:26:03 44° WNW 02:30:18 10° N
Cosmos 1766 3.9 02:24:41 10° N 02:28:38 58° ENE 02:32:35 10° SSE
CREW DRAGON DEMO-1 DEB 2.5 02:28:01 44° SW 02:28:40 65° SSE 02:31:22 10° E
CZ-4C R/B 4.1 02:28:03 22° SSW 02:30:22 39° W 02:34:33 10° NNW
IRS-1D 3.7 02:25:36 10° N 02:30:39 57° WNW 02:34:11 20° SW
Meteor 1-29 4.4 02:28:07 10° NNW 02:30:43 21° WNW 02:31:35 19° W
Gblst 52 Del rocket 4.2 02:28:42 16° WSW 02:33:34 85° S 02:39:09 10° E
SL-16 R/B 3.9 02:33:14 17° WSW 02:35:10 20° W 02:39:38 10° NW
NOSS 3-4 (A) 3.9 02:32:45 10° NW 02:39:27 53° SW 02:46:55 10° SSE
NOSS 3-4 (C) 3.9 02:32:51 10° NW 02:39:33 54° SW 02:47:02 10° SSE
USA 305 3.2 02:36:08 10° WNW 02:40:25 70° N 02:44:43 10° E
Cosmos 1378 3.2 02:40:01 21° SSW 02:42:16 56° WNW 02:45:56 10° N
USA 81 4.1 02:37:16 10° NNW 02:42:30 62° W 02:47:41 10° S
IRS-1C 4.1 02:37:07 10° NNE 02:42:30 86° WNW 02:47:38 11° SSW
Cosmos 44 4.1 02:38:49 10° NW 02:44:17 65° NE 02:49:37 10° SE
Cosmos 1733 3.1 02:40:59 10° NNW 02:44:47 83° W 02:48:33 10° S
Meteor 1-13 Rocket 4.3 02:40:01 14° SSW 02:44:58 68° WNW 02:50:39 10° N
NOSS 3-3 (A) 4.5 02:45:53 15° WSW 02:50:53 56° NNW 02:57:45 10° NE
NOSS 3-3 (C) 4.4 02:46:00 15° WSW 02:50:59 56° NNW 02:57:51 10° NE
SL-4 R/B 3.3 02:47:02 10° W 02:51:06 27° SW 02:55:08 10° SSE
Cosmos 1805 3.3 02:47:27 10° NNW 02:51:19 57° W 02:55:09 10° S
Cosmos 1356 Rocket 3.7 02:48:35 10° NNW 02:52:32 46° W 02:56:31 10° S
ATLAS 2AS CENTAUR R/B 2.8 02:46:38 10° NW 02:54:00 65° SW 03:00:47 10° SSE
FALCON 9 DEB 4.3 02:54:08 19° SW 02:54:08 19° SW 02:56:19 10° S
MSX 3.8 02:50:08 10° NNE 02:55:55 79° WNW 03:01:40 10° SSW
Cosmos 1470 4.1 02:52:20 10° N 02:56:01 41° ENE 02:59:43 10° SE
CZ-4B R/B 3.3 02:51:43 10° NNE 02:56:29 72° WNW 03:01:15 10° SSW
USA 306 3.1 02:53:58 10° WNW 02:58:18 75° NNE 03:02:36 10° E
X-37B 2.3 02:56:51 15° SSW 02:58:21 21° S 03:00:51 10° ESE
GP-B 4.1 02:57:55 10° N 03:02:16 49° E 03:06:34 10° SSE
Cosmos 2082 Rocket 3.5 02:58:43 10° WNW 03:02:27 18° W 03:05:33 12° SW
Resurs 1-4 Rocket 3.9 02:59:58 10° NNW 03:03:17 17° NW 03:06:36 10° W
Cosmos 2084 3.4 03:00:34 15° SW 03:04:02 90° N 03:08:22 10° NE
Cosmos 1400 Rocket 3.5 03:03:31 10° N 03:07:37 60° ENE 03:11:42 10° SSE
SL-08 R/B 3.9 03:05:59 10° SSW 03:10:34 39° W 03:15:07 10° NNW
Cosmos 2151 Rocket 3.8 03:09:08 10° NNW 03:13:33 53° W 03:17:56 10° S
CZ-2D R/B 4.1 03:11:31 10° NNW 03:14:43 16° NW 03:17:54 10° W
USA 307 3.0 03:11:08 10° WNW 03:15:28 81° NNE 03:19:47 10° ESE
ERBS 3.8 03:12:25 10° WNW 03:15:28 32° N 03:18:31 10° ENE
Meteor 2-10 4.4 03:09:46 10° NNW 03:15:32 84° ENE 03:21:09 10° SSE
ADEOS Rocket 4.1 03:12:24 10° SSW 03:17:57 29° W 03:24:03 10° NNW
Okean 2 Rocket 3.6 03:14:01 10° NNW 03:18:07 37° W 03:22:12 10° SSW
Cosmos 1300 Rocket 4.4 03:15:29 10° NNW 03:19:24 31° W 03:23:17 10° SSW
IRAS Rocket 4.2 03:15:25 10° S 03:20:52 65° WSW 03:26:26 10° NNW
SL-27 R/B 3.0 03:18:04 10° NNW 03:21:23 58° ENE 03:24:39 10° SE
Cosmos 1818 3.6 03:17:43 10° NW 03:23:14 86° SW 03:28:43 10° SE
CZ-2D R/B 3.7 03:20:02 10° N 03:24:04 55° WNW 03:28:09 10° SSW
Cosmos 2344 4.3 03:17:07 10° NW 03:26:08 77° SW 03:38:43 10° SSE
USA 234 3.4 03:19:52 10° ENE 03:26:26 79° NNW 03:32:59 10° WSW
Cosmos 2221 Rocket 4.1 03:23:28 10° SSW 03:27:47 45° WNW 03:32:10 10° N
USA 308 3.0 03:23:50 10° WNW 03:28:09 88° NNE 03:32:28 10° ESE
SJ 16-02 3.7 03:27:03 10° WNW 03:28:30 11° NW 03:29:58 10° NNW
Cosmos 2278 Rocket 3.8 03:27:17 10° W 03:31:44 23° NW 03:36:12 10° NNE
Cosmos 1726 2.2 03:28:43 10° N 03:32:29 86° E 03:36:13 10° S
Cosmos 1802 Rocket 4.3 03:26:19 10° N 03:32:38 78° ENE 03:38:49 10° SSE
SL-24 R/B - RUBIN 2 4.1 03:27:06 10° NW 03:32:40 57° SW 03:37:33 10° SSE
Cosmos 1048 Rocket 4.2 03:27:36 10° NNW 03:32:50 53° WSW 03:38:01 10° S
Cosmos 1842 3.2 03:30:33 10° SSW 03:34:25 71° WNW 03:38:18 10° N
Cosmos 1943 Rocket 2.4 03:30:07 10° SW 03:35:44 64° NW 03:41:22 10° NNE
Okean 2 3.5 03:33:45 10° S 03:37:54 89° WNW 03:42:06 10° N
ADEOS II 3.8 03:34:29 10° NNW 03:37:57 18° NW 03:41:25 10° W
Cosmos 1953 4.0 03:36:47 10° N 03:40:34 40° ENE 03:44:19 10° SE
CZ-2C R/B 2.4 03:36:27 10° NNE 03:41:11 73° WNW 03:46:03 10° SSW
Gbstr 26 Del rocket 3.4 03:36:18 10° W 03:41:55 90° N 03:46:26 10° E
